Regional Weather Roundup
Issued by NWS

Home | Current Version | Previous Version | Graphics & Text | Print | Product List | Glossary On
Versions: 1 2 3 4 5 6 7 8 9 10 11 12 13 14 15 16 17 18 19 20 21 22 23 24 25 26 27 28 29 30 31 32 33 34 35 36 37 38 39 40 41 42 43 44 45 46 47 48 49 50
000
ASUS43 KLSX 280859
RWRMO

WEATHER SUMMARY FOR MISSOURI
NATIONAL WEATHER SERVICE SPRINGFIELD MO
400 AM CDT SAT MAR 28 2015

NOTE: "FAIR" INDICATES FEW OR NO CLOUDS BELOW 12,000 FEET WITH NO
       SIGNIFICANT WEATHER AND/OR OBSTRUCTIONS TO VISIBILITY.
       CURRENT SKY AND/OR WEATHER CONDITIONS ARE NOT AVAILABLE FOR
       CHILLICOTHE AND FARMINGTON.

MOZ001>031-035>038-043-044-053-054-281000-
...NORTHERN AND WESTERN MISSOURI...

CITY           SKY/WX    TMP DP  RH WIND       PRES   REMARKS
KANSAS CTY INT CLOUDY    38  24  57 E12       30.10S
KANSAS C DTWN  CLOUDY    40  23  50 E8        30.10F
LEE`S SUMMIT   CLOUDY    38  23  55 SE7       30.10F
ST JOSEPH      CLOUDY    36  27  69 E9        30.12S WCI  29
CHILLICOTHE      N/A     37  25  61 CALM      30.15S
KIRKSVILLE     CLOUDY    29  19  66 E5        30.16S WCI  24

$$
MOZ066>068-077>081-088>096-101>105-281000-
...SOUTHWEST MISSOURI...

CITY           SKY/WX    TMP DP  RH WIND       PRES   REMARKS
SPRINGFIELD    CLOUDY    39  23  52 SE7       30.09F
JOPLIN         MOCLDY    40  27  59 SE6       30.08F

$$
MOZ032>034-039>042-045>050-055>058-069>072-281000-
...CENTRAL MISSOURI...

CITY           SKY/WX    TMP DP  RH WIND       PRES   REMARKS
COLUMBIA       CLOUDY    33  23  66 E8        30.14S WCI  26
JEFFERSON CITY CLOUDY    36  24  62 E7        30.16S
ROLLA          CLOUDY    33  22  63 SE6       30.12S WCI  28
SEDALIA        LGT SNOW  35  30  82 S6        30.14F
WHITEMAN AFB   CLOUDY    36  28  75 E7        30.10F WCI  30
OSAGE BEACH    CLOUDY    37  27  65 S3        30.14S

$$
MOZ051-052-059>065-281000-
...EAST CENTRAL MISSOURI...

CITY           SKY/WX    TMP DP  RH WIND       PRES   REMARKS
ST LOUIS INTL  MOCLDY    28  18  66 E5        30.20S WCI  23
SPIRIT OF STL  PTCLDY    27  20  75 CALM      30.19S
ST CHARLES     PTCLDY    29  21  72 E5        30.20S WCI  24

$$
MOZ072>076-082>087-097>100-106>115-281000-
...SOUTH CENTRAL AND SOUTHEAST MISSOURI...

CITY           SKY/WX    TMP DP  RH WIND       PRES   REMARKS
CAPE GIRARDEAU PTCLDY    30  26  85 SE3       30.19S
FARMINGTON     MOCLDY    28  21  74 E5        30.18F WCI  23
POPLAR BLUFF   MOCLDY    33  28  81 CALM      30.18F
WEST PLAINS    CLOUDY    36  20  52 SE7       30.13F

$$



USA.gov is the U.S. government's official web portal to all federal, state and local government web resources and services.